Location: Stockholm
(59.3330°N, 18.0500°E)
Time: 11:20:09
(UTC+01:00)

FENGYUN 1C DEB - Pass Details

Date: 16 December 2023
Orbit: 841 x 915 km, 98.8° (Epoch: 27 February)

Event Time Altitude Azimuth Distance (km) Brightness Sun altitude
Exits shadow 18:24:57 17° 10° (N) 2,052 ? -25.1°
Drops below altitude 10° 18:26:39 10° 355° (N) 2,496 ? -25.4°
Sets 18:29:31 0° 341° (NNW) 3,447 ? -25.7°
